Torna al catalogo

STARLINK-3344

AttivoComunicazioniVLEO
NORAD 51110·PAYLOAD·🇺🇸 United States

Lanciato Jan 19, 2022 da Cape Canaveral Space Force Station

Loading…

Prossimi Passaggi (prossime 24 ore)

TLE

AggiornatoSource: CelesTrak SupGP

Epoca: Sep 14, 2026, 20:54 UTC

1 51110C 22005G   26257.87131944 -.00030205  00000+0 -89303-3 0  2570
2 51110  53.1583 151.9617 0001027  77.4128 352.9611 15.34383906    14

Traccia STARLINK-3344 in tempo reale con AllMySat

Download on the App Store